Tracking 25378 objects as of 22-Jan-2022
HD Live streaming from Space Station
objects crossing your sky now

FAST

Track FAST now!
10-day predictions
FAST is classified as:


NORAD ID: 24285
Int'l Code: 1996-049A
Perigee: 353.4 km
Apogee: 3,413.9 km
Inclination: 83.0 °
Period: 124.4 minutes
Semi major axis: 8254 km
RCS: 1.3393 m2 (large)
Launch date: August 21, 1996
Source: United States (US)
Launch site: AIR FORCE WESTERN TEST RANGE (AFWTR)

Designed to study Earth's aurora.
aabbcc
Your satellite tracking list
Your tracking list is empty




NASA's NSSDC Master Catalog

Two Line Element Set (TLE):
1 24285U 96049A   22022.53437446  .00005470  00000-0  43942-3 0  9994
2 24285  82.9562 192.5979 1853814 151.1413 220.6357 11.57588853 44816
Source of the keplerian elements: AFSPC